Weather History for Fairmont, MN

Change the Weather History Date:

Sunday, February 16, 2014

  Actual Average Record
Temperature  
Mean Temperature 14 °F -  
Max Temperature 19 °F 27 °F 60 °F (1981)
Min Temperature 8 °F 9 °F -24 °F (1979)
Degree Days  
Heating Degree Days 52    
Moisture  
Dew Point 9 °F    
Average Humidity 80    
Maximum Humidity 86    
Minimum Humidity 73    
Precipitation  
Precipitation 0.00 in - - ()
Sea Level Pressure  
Sea Level Pressure 30.08 in    
Wind  
Wind Speed 13 mph (ESE)    
Max Wind Speed 29 mph    
Max Gust Speed 37 mph    
Visibility 9 miles    
Events      
Averages and records for this station are not official NWS values.
T = Trace of Precipitation, MM = Missing Value Source: NWS Daily Summary

Daily Weather History Graph

Daily Weather History Graph

Search for Another Location

Airport:

Trip Planner

Search our weather history database for the weather conditions in past years. The results will help you decide how hot, cold, wet, or windy it might be!

Date:

Astronomy

Feb. 16, 2014 Rise Set
Actual Time 7:14 AM CST 5:49 PM CST
Civil Twilight 6:45 AM CST 6:18 PM CST
Nautical Twilight 6:11 AM CST 6:52 PM CST
Astronomical Twilight 5:38 AM CST 7:25 PM CST
Moon 7:52 PM CST (2/16) 7:40 AM CST (2/16)
Length of Visible Light 11h 33m
Length of Day
10h 34m
Full, 97% of the Moon is Illuminated
Feb 16
Full
Feb 22
Last Quarter
Mar 1
New
Mar 8
First Quarter
Mar 16
Full

Hourly Weather History & Observations

Time (CST) Temp. Windchill Dew Point Humidity Pressure Visibility Wind Dir Wind Speed Gust Speed Precip Events Conditions
12:15 AM 12.2 °F -3.7 °F 8.6 °F 85% 30.04 in 5.0 mi NNW 15.0 mph - N/A   Overcast
12:35 AM 12.2 °F -3.1 °F 8.6 °F 85% 30.05 in 9.0 mi NNW 13.8 mph - N/A   Overcast
12:55 AM 12.2 °F -1.8 °F 8.6 °F 85% 30.06 in 9.0 mi NW 11.5 mph - N/A   Overcast
1:15 AM 12.2 °F -3.1 °F 8.6 °F 85% 30.06 in 9.0 mi NW 13.8 mph - N/A   Overcast
1:35 AM 12.2 °F -3.1 °F 8.6 °F 85% 30.07 in 10.0 mi NW 13.8 mph - N/A   Overcast
1:55 AM 12.2 °F -2.5 °F 8.6 °F 85% 30.08 in 10.0 mi NW 12.7 mph - N/A   Overcast
2:15 AM 12.2 °F -2.5 °F 8.6 °F 85% 30.09 in 10.0 mi NNW 12.7 mph - N/A   Overcast
2:35 AM 12.2 °F -3.1 °F 6.8 °F 79% 30.11 in 10.0 mi NW 13.8 mph - N/A   Overcast
2:55 AM 12.2 °F -3.1 °F 8.6 °F 85% 30.11 in 10.0 mi NW 13.8 mph - N/A   Overcast
3:15 AM 12.2 °F -0.2 °F 6.8 °F 79% 30.12 in 10.0 mi NW 9.2 mph - N/A   Overcast
3:35 AM 10.4 °F -4.8 °F 6.8 °F 85% 30.11 in 10.0 mi NW 12.7 mph 16.1 mph N/A   Overcast
3:55 AM 10.4 °F -3.3 °F 6.8 °F 85% 30.11 in 10.0 mi NNW 10.4 mph - N/A   Overcast
4:15 AM 10.4 °F -5.4 °F 5.0 °F 79% 30.11 in 10.0 mi NNW 13.8 mph - N/A   Overcast
4:35 AM 8.6 °F -5.5 °F 3.2 °F 79% 30.11 in 10.0 mi NW 10.4 mph - N/A   Overcast
4:55 AM 8.6 °F -6.3 °F 5.0 °F 85% 30.11 in 10.0 mi NNW 11.5 mph - N/A   Overcast
5:15 AM 8.6 °F -4.7 °F 3.2 °F 79% 30.12 in 10.0 mi NNW 9.2 mph - N/A   Overcast
5:35 AM 8.6 °F -3.7 °F 3.2 °F 79% 30.14 in 10.0 mi NW 8.1 mph - N/A   Overcast
5:55 AM 8.6 °F -5.5 °F 3.2 °F 79% 30.15 in 10.0 mi NNW 10.4 mph - N/A   Overcast
6:15 AM 8.6 °F -3.7 °F 3.2 °F 79% 30.16 in 10.0 mi NNW 8.1 mph - N/A   Overcast
6:35 AM 8.6 °F -2.6 °F 3.2 °F 79% 30.16 in 10.0 mi NNW 6.9 mph - N/A   Overcast
6:55 AM 8.6 °F -4.7 °F 3.2 °F 79% 30.18 in 10.0 mi NW 9.2 mph - N/A   Overcast
7:15 AM 8.6 °F -2.6 °F 3.2 °F 79% 30.18 in 10.0 mi NW 6.9 mph - N/A   Overcast
7:35 AM 8.6 °F -1.3 °F 3.2 °F 79% 30.19 in 10.0 mi NW 5.8 mph - N/A   Overcast
7:55 AM 8.6 °F -1.3 °F 3.2 °F 79% 30.20 in 7.0 mi NW 5.8 mph - N/A   Overcast
8:15 AM 8.6 °F -2.6 °F 3.2 °F 79% 30.21 in 7.0 mi NW 6.9 mph - N/A   Overcast
8:35 AM 8.6 °F -3.7 °F 3.2 °F 79% 30.23 in 5.0 mi NW 8.1 mph - N/A   Overcast
8:55 AM 8.6 °F -1.3 °F 5.0 °F 85% 30.22 in 5.0 mi NW 5.8 mph - N/A   Overcast
9:15 AM 10.4 °F 2.2 °F 5.0 °F 79% 30.22 in 6.0 mi NNW 4.6 mph - N/A   Overcast
9:35 AM 10.4 °F 0.8 °F 5.0 °F 79% 30.20 in 10.0 mi North 5.8 mph - N/A   Mostly Cloudy
9:55 AM 12.2 °F 2.9 °F 6.8 °F 79% 30.20 in 10.0 mi NNE 5.8 mph - N/A   Clear
10:15 AM 10.4 °F 0.8 °F 5.0 °F 79% 30.18 in 10.0 mi ENE 5.8 mph - N/A   Clear
10:35 AM 10.4 °F -0.4 °F 6.8 °F 85% 30.18 in 10.0 mi ENE 6.9 mph - N/A   Clear
10:55 AM 12.2 °F -0.2 °F 6.8 °F 79% 30.16 in 10.0 mi ENE 9.2 mph - N/A   Clear
11:15 AM 12.2 °F 2.9 °F 8.6 °F 85% 30.16 in 10.0 mi East 5.8 mph - N/A   Clear
11:35 AM 12.2 °F 2.9 °F 8.6 °F 85% 30.16 in 10.0 mi East 5.8 mph - N/A   Clear
11:55 AM 14.0 °F 2.0 °F 8.6 °F 79% 30.14 in 10.0 mi East 9.2 mph - N/A   Clear
12:15 PM 15.8 °F 3.4 °F 10.4 °F 79% 30.12 in 10.0 mi ESE 10.4 mph - N/A   Clear
12:35 PM 15.8 °F 2.1 °F 10.4 °F 79% 30.13 in 10.0 mi SE 12.7 mph - N/A   Clear
12:55 PM 15.8 °F 1.4 °F 10.4 °F 79% 30.12 in 10.0 mi SE 13.8 mph - N/A   Clear
1:15 PM 15.8 °F 2.7 °F 8.6 °F 73% 30.12 in 10.0 mi SE 11.5 mph - N/A   Clear
1:35 PM 15.8 °F 2.1 °F 10.4 °F 79% 30.11 in 10.0 mi SE 12.7 mph - N/A   Partly Cloudy
1:55 PM 15.8 °F 1.4 °F 10.4 °F 79% 30.10 in 10.0 mi SE 13.8 mph - N/A   Partly Cloudy
2:15 PM 17.6 °F 3.7 °F 10.4 °F 73% 30.09 in 10.0 mi SSE 13.8 mph - N/A   Mostly Cloudy
2:35 PM 17.6 °F 4.3 °F 10.4 °F 73% 30.08 in 10.0 mi SE 12.7 mph - N/A   Mostly Cloudy
2:55 PM 17.6 °F 3.2 °F 10.4 °F 73% 30.07 in 10.0 mi SE 15.0 mph - N/A   Overcast
3:15 PM 17.6 °F 1.7 °F 12.2 °F 79% 30.06 in 10.0 mi SSE 18.4 mph - N/A   Overcast
3:35 PM 17.6 °F 2.2 °F 10.4 °F 73% 30.06 in 10.0 mi SE 17.3 mph - N/A   Overcast
3:55 PM 17.6 °F 2.7 °F 12.2 °F 79% 30.06 in 10.0 mi SE 16.1 mph - N/A   Overcast
4:15 PM 17.6 °F 2.7 °F 12.2 °F 79% 30.05 in 10.0 mi SE 16.1 mph - N/A   Overcast
4:35 PM 17.6 °F 1.7 °F 12.2 °F 79% 30.04 in 10.0 mi SE 18.4 mph - N/A   Overcast
4:55 PM 17.6 °F 1.3 °F 12.2 °F 79% 30.04 in 10.0 mi SE 19.6 mph - N/A   Overcast
5:15 PM 17.6 °F 1.7 °F 12.2 °F 79% 30.03 in 10.0 mi SE 18.4 mph - N/A   Overcast
5:35 PM 17.6 °F 1.7 °F 12.2 °F 79% 30.02 in 10.0 mi SE 18.4 mph - N/A   Mostly Cloudy
5:55 PM 17.6 °F 1.7 °F 12.2 °F 79% 30.02 in 10.0 mi SE 18.4 mph - N/A   Mostly Cloudy
6:15 PM 17.6 °F 2.2 °F 12.2 °F 79% 30.01 in 10.0 mi SE 17.3 mph 27.6 mph N/A   Overcast
6:35 PM 17.6 °F 1.3 °F 12.2 °F 79% 30.01 in 10.0 mi SE 19.6 mph 26.5 mph N/A   Overcast
6:55 PM 17.6 °F 0.5 °F 12.2 °F 79% 30.00 in 10.0 mi SE 21.9 mph - N/A   Overcast
7:15 PM 17.6 °F 1.7 °F 12.2 °F 79% 30.00 in 10.0 mi SSE 18.4 mph 25.3 mph N/A   Mostly Cloudy
7:35 PM 17.6 °F 0.1 °F 12.2 °F 79% 29.98 in 10.0 mi SE 23.0 mph - N/A   Mostly Cloudy
7:55 PM 17.6 °F 1.7 °F 12.2 °F 79% 29.99 in 10.0 mi SSE 18.4 mph - N/A   Scattered Clouds
8:15 PM 17.6 °F 0.1 °F 12.2 °F 79% 29.98 in 10.0 mi SSE 23.0 mph 27.6 mph N/A   Clear
8:35 PM 19.4 °F 2.5 °F 12.2 °F 74% 29.98 in 10.0 mi SSE 23.0 mph - N/A   Mostly Cloudy
8:55 PM 19.4 °F 2.1 °F 12.2 °F 74% 29.96 in 8.0 mi SSE 24.2 mph 28.8 mph N/A   Overcast
9:15 PM 19.4 °F 2.5 °F 12.2 °F 74% 29.96 in 7.0 mi SSE 23.0 mph 32.2 mph N/A   Scattered Clouds
9:35 PM 19.4 °F 2.5 °F 14.0 °F 80% 29.95 in 8.0 mi SSE 23.0 mph - N/A   Clear
9:55 PM 19.4 °F 2.1 °F 14.0 °F 80% 29.94 in 7.0 mi SSE 24.2 mph - N/A   Clear
10:15 PM 19.4 °F 1.8 °F 14.0 °F 80% 29.94 in 5.0 mi SSE 25.3 mph 33.4 mph N/A   Scattered Clouds
10:35 PM 19.4 °F 0.8 °F 15.8 °F 86% 29.90 in 4.0 mi SSE 28.8 mph 36.8 mph N/A   Mostly Cloudy
10:55 PM 19.4 °F 0.8 °F 15.8 °F 86% 29.91 in 4.0 mi SSE 28.8 mph 36.8 mph N/A   Scattered Clouds
11:15 PM 19.4 °F 1.1 °F 15.8 °F 86% 29.90 in 5.0 mi SSE 27.6 mph 34.5 mph N/A   Scattered Clouds
11:35 PM 19.4 °F 2.1 °F 15.8 °F 86% 29.90 in 3.0 mi SSE 24.2 mph 36.8 mph N/A   Mostly Cloudy
11:55 PM 19.4 °F 1.1 °F 15.8 °F 86% 29.90 in 3.0 mi SSE 27.6 mph 34.5 mph N/A   Overcast